sat.trackr.live / text

‹ back to catalog

STARLINK-32834

NORAD 62875 · 2025-022X

PAYLOAD ACTIVE UNKNOWN

§ Identity

Operator
Country
US
Launch date
2025-02-01
Launch site
AFWTR
Launch vehicle
Mass (kg)
RCS (m²)

Purposes: comms

External: N2YO · Heavens-Above · Gunter

§ Orbital elements

Epoch: 2026-05-25T03:00:48.550752Z

Period
94.11 min
Inclination
53.1556°
Eccentricity
0.0001241
Mean motion
15.30187771 rev/d
Perigee alt
474.4 km
Apogee alt
476.1 km
Semi-major
6,853.4 km
B*
1.1311e-3
RAAN
134.5173°
Arg perigee
97.7853°
Mean anomaly
262.3288°
Rev number
7,360

§ Raw data

STARLINK-328341 62875U 25022X   26145.12556193  .00033277  00000+0  11311-2 0  99992 62875  53.1556 134.5173 0001241  97.7853 262.3288 15.30187771 73603

JSON: /api/v1/satellites/62875 · /tle

For live sub-satellite position, see the globe view (requires WebGL).

§ Visibility from observer

Set your observer location to see the next 7 days of passes ≥ 10°. The values pass through the URL so the page stays shareable.

No JS? Fill the form by hand. The geolocation button needs JavaScript.